This is the latest recevied weather packets stored in our database for station/object DM1RG-6. If no packets are shown the sender has not sent any weather packets the latest 1 day(s).
| Time | Temp. | Humidity | Pressure | Rain* | Wind** | Luminosity | Snow |
|---|---|---|---|---|---|---|---|
| 1778038204 | 11.67° C | 100% | 1003.7 hPa | 1.02 mm | 2.68 m/s, 35° | - | - |
| 1778037844 | 11.67° C | 100% | 1003.6 hPa | 1.02 mm | 2.68 m/s, 36° | - | - |
| 1778037483 | 11.67° C | 100% | 1003.8 hPa | 1.02 mm | 2.24 m/s, 30° | - | - |
| 1778037124 | 11.67° C | 100% | 1003.9 hPa | 1.27 mm | 2.24 m/s, 21° | - | - |
| 1778036763 | 11.67° C | 100% | 1004 hPa | 1.52 mm | 2.24 m/s, 23° | - | - |
| 1778036404 | 11.67° C | 100% | 1004.2 hPa | 1.78 mm | 1.79 m/s, 26° | - | - |
| 1778036044 | 11.67° C | 100% | 1004.2 hPa | 1.52 mm | 1.79 m/s, 37° | - | - |
| 1778035684 | 11.67° C | 100% | 1004.3 hPa | 1.52 mm | 1.79 m/s, 43° | - | - |
| 1778035323 | 11.67° C | 100% | 1004.5 hPa | 1.78 mm | 2.24 m/s, 45° | - | - |
| 1778034964 | 11.67° C | 100% | 1004.5 hPa | 1.52 mm | 1.79 m/s, 46° | - | - |
| 1778034604 | 11.67° C | 100% | 1004.2 hPa | 1.78 mm | 1.79 m/s, 38° | - | - |
| 1778034244 | 11.67° C | 100% | 1004.4 hPa | 1.52 mm | 1.79 m/s, 31° | - | - |
| 1778033884 | 11.67° C | 100% | 1004.5 hPa | 1.78 mm | 1.79 m/s, 36° | - | - |
| 1778033524 | 11.67° C | 100% | 1004.7 hPa | 1.78 mm | 1.79 m/s, 36° | - | - |
| 1778033163 | 11.67° C | 100% | 1004.8 hPa | 1.52 mm | 1.79 m/s, 39° | - | - |
| 1778032804 | 11.67° C | 100% | 1004.5 hPa | 1.52 mm | 1.34 m/s, 38° | - | - |
| 1778032444 | 11.67° C | 100% | 1004.9 hPa | 1.52 mm | 1.79 m/s, 33° | - | - |
| 1778032083 | 11.67° C | 100% | 1004.8 hPa | 1.78 mm | 2.24 m/s, 34° | - | - |
| 1778031723 | 11.67° C | 100% | 1004.8 hPa | 1.78 mm | 1.79 m/s, 34° | - | - |
| 1778031364 | 11.67° C | 100% | 1004.8 hPa | 2.03 mm | 2.24 m/s, 32° | - | - |
| 1778031004 | 11.67° C | 100% | 1005 hPa | 2.03 mm | 2.68 m/s, 34° | - | - |
| 1778030643 | 11.67° C | 100% | 1004.8 hPa | 2.29 mm | 2.68 m/s, 39° | - | - |
| 1778030283 | 11.67° C | 100% | 1004.9 hPa | 2.29 mm | 2.68 m/s, 37° | - | - |
| 1778029923 | 11.67° C | 100% | 1005 hPa | 2.79 mm | 2.24 m/s, 37° | - | - |
| 1778029564 | 11.67° C | 100% | 1004.8 hPa | 3.56 mm | 2.24 m/s, 30° | - | - |
* Rain latest hour (hover to see other rain measurements)
** Current wind speed in m/s (hover to see current wind gust speed)